Wind_Speed
8 10 10 9 10 11 13 15 14 13 10 10 12 10 6 4 4 4 6 6 5 2 0 1 0 1 2 1 1 1 0 0 0 0 1 1 1 1 1 1 2 1 2 2 2 1 3 2 1 2 1 2 2 2 3 3 2 3 2 1 3 1 3 4 7 7 1 6 5 3 2 1 2 3 2 2 2 2 3 5 4 4 6 5 6 9 3
9 11 11 10 11 12 15 15 14 12 11 11 12 10 7 5 3 3 6 6 4 2 1 1 2 2 1 1 1 1 1 1 1 0 1 1 1 2 1 0 1 1 2 3 2 2 2 2 1 2 2 1 1 2 2 1 2 3 1 2 4 2 3 3 6 7 2 1 1 2 1 1 2 1 1 1 2 3 1 3 3 5 8 7 8 9 3
10 12 12 12 13 14 15 14 12 11 11 11 12 11 8 5 1 2 5 8 5 3 2 2 2 1 0 1 1 0 1 1 1 1 1 1 1 2 1 1 1 1 1 2 3 2 2 1 1 1 1 1 2 2 1 1 2 4 2 2 3 3 4 3 5 6 6 5 4 2 2 3 4 2 2 2 1 1 2 4 5 5 5 6 8 10 8
11 12 13 13 14 15 13 12 11 10 10 10 11 10 7 3 1 2 4 7 7 7 6 4 2 1 2 1 1 1 1 1 1 2 1 1 1 2 2 1 1 2 2 4 4 3 3 2 2 2 2 1 2 1 1 1 1 3 3 3 2 3 4 4 6 7 7 8 9 6 5 7 9 7 3 1 3 2 2 4 5 6 7 7 8 10 13
11 12 13 14 14 13 11 10 10 9 9 10 10 9 6 2 1 2 2 3 5 6 6 6 3 1 2 1 1 2 2 1 1 2 1 1 1 2 2 2 2 2 1 4 3 1 3 2 1 2 3 1 1 0 1 1 1 2 2 2 1 3 4 2 4 7 9 11 13 11 9 9 11 10 8 3 2 4 3 6 7 8 8 7 7 12 16
12 13 14 13 12 11 10 9 9 8 8 9 8 7 6 3 0 1 1 2 2 1 4 6 3 1 2 1 1 2 2 1 1 0 1 1 1 2 2 2 4 3 3 4 3 3 3 3 1 1 1 1 1 1 2 1 1 1 1 1 1 4 4 1 1 6 10 13 14 13 9 8 7 7 8 7 2 3 4 7 9 8 7 9 13 17 18
13 13 13 12 10 10 9 8 8 7 7 7 6 5 5 3 1 1 1 1 2 1 2 3 1 0 1 0 1 2 3 2 2 1 1 1 2 2 2 1 0 2 2 3 4 5 4 2 0 1 1 1 2 2 1 2 1 0 1 1 2 3 2 2 0 7 11 11 9 6 4 4 5 4 5 7 5 2 3 6 9 9 9 13 16 19 18
12 12 11 10 9 9 8 8 8 7 7 6 5 4 3 1 1 0 1 1 1 1 1 2 2 1 1 1 1 1 3 2 2 0 2 2 1 2 2 3 2 1 2 4 5 4 5 3 2 1 1 2 1 1 2 2 1 0 1 1 1 1 0 2 1 7 8 2 3 2 3 2 3 4 7 8 8 6 4 5 7 9 11 14 17 18 15
11 10 10 10 9 9 9 9 8 8 7 6 5 4 3 2 2 1 1 1 1 1 1 2 2 0 0 1 1 0 1 3 4 1 1 2 2 0 3 5 2 2 2 4 4 5 6 4 4 2 2 3 2 1 2 3 1 1 1 0 0 1 2 0 1 7 5 3 3 4 1 3 4 6 10 11 9 8 6 6 9 11 13 16 15 12 8
9 9 10 10 10 10 9 9 8 8 7 6 5 4 3 3 2 1 2 1 1 1 1 1 2 1 1 2 1 1 2 3 3 3 1 1 1 2 3 5 4 3 2 2 3 5 4 4 4 3 4 4 3 2 2 3 3 1 1 1 0 1 4 3 2 6 5 2 6 10 4 4 4 5 9 10 9 9 10 10 12 13 13 13 11 8 10
9 9 9 9 9 9 9 9 8 7 7 6 5 4 3 3 2 1 3 2 1 1 2 1 1 2 2 1 1 1 2 1 1 3 1 2 2 3 2 3 4 3 2 2 4 5 5 3 2 1 1 1 0 0 2 3 4 3 1 1 0 1 3 4 2 3 6 7 11 12 6 2 2 6 9 11 10 11 13 13 13 14 12 9 9 11 15
8 8 9 9 9 9 9 9 8 7 6 5 5 4 3 3 2 0 2 2 0 0 2 1 1 2 1 2 2 2 2 2 1 2 2 2 3 4 2 2 3 2 2 4 6 5 4 1 2 3 4 4 4 4 4 5 5 4 3 1 1 1 2 3 1 2 6 7 9 8 4 2 3 4 10 14 10 12 15 13 11 13 12 11 13 15 18
8 9 9 9 9 9 9 9 8 7 6 5 4 4 3 3 2 1 1 2 1 1 2 1 1 3 3 3 3 2 2 3 3 2 2 3 3 3 2 2 2 3 5 7 6 3 3 3 3 3 3 4 4 5 6 7 6 5 3 3 2 2 2 3 2 3 5 4 5 6 2 4 3 3 11 15 12 14 17 14 11 11 11 12 14 17 22
9 9 10 10 10 10 9 8 8 7 6 5 4 3 3 2 2 1 1 2 1 1 1 2 1 2 3 2 2 2 1 1 1 0 1 2 2 2 3 3 3 4 5 5 3 3 3 2 2 2 3 4 2 2 4 5 6 6 4 3 2 2 2 3 2 1 2 4 5 5 3 2 5 6 10 13 12 12 13 13 10 8 14 18 19 20 26
10 10 10 10 10 9 9 8 7 6 5 4 3 3 2 2 2 2 1 1 1 1 1 2 3 4 4 2 2 2 1 1 0 0 1 1 1 2 3 3 3 3 3 3 3 3 2 2 3 3 1 1 1 0 3 4 4 5 4 3 2 2 2 3 3 1 2 4 5 5 6 3 4 9 12 14 14 16 15 12 6 9 23 31 27 24 29
10 10 10 10 10 9 9 8 8 7 6 5 4 3 2 2 2 1 1 1 1 0 1 2 4 4 3 1 2 3 2 1 2 1 2 2 0 2 4 3 2 1 1 2 3 3 2 2 3 4 2 2 3 2 1 1 2 3 2 2 3 1 1 2 4 3 3 4 5 5 4 2 7 11 15 17 19 22 17 8 4 12 30 36 31 30 34
10 10 10 10 10 10 10 9 9 8 7 6 5 4 3 2 1 1 1 0 2 1 1 2 3 3 2 1 1 2 2 3 3 2 0 1 1 1 3 3 2 1 1 2 2 2 2 2 2 3 2 2 2 4 3 2 2 2 1 2 3 3 2 2 3 3 3 3 4 5 2 4 9 15 17 21 24 21 13 7 4 19 34 36 32 32 33
10 10 10 10 10 10 10 10 10 9 9 8 7 6 5 3 2 1 1 1 2 3 2 3 3 2 1 1 2 2 2 3 2 2 1 1 1 1 2 2 2 1 1 2 2 2 3 2 1 3 2 1 1 3 3 3 4 4 3 2 2 3 3 2 2 4 5 3 4 5 1 4 13 19 22 26 24 13 6 6 12 25 36 38 34 31 29
10 10 10 10 10 10 10 10 11 10 10 10 8 7 6 4 2 1 1 1 1 2 1 3 4 4 3 3 3 2 2 3 3 3 2 1 1 5 3 2 1 1 1 2 2 2 3 1 1 2 2 0 1 2 3 4 3 4 5 3 2 3 3 2 2 4 5 3 5 6 1 6 19 23 21 21 15 4 4 13 22 29 34 36 33 29 27
10 9 9 9 9 10 11 11 11 11 10 10 9 7 6 5 3 2 1 1 3 5 4 3 5 6 5 4 4 3 2 3 3 3 3 2 5 7 3 1 1 2 2 2 1 1 2 2 1 1 2 2 2 1 2 4 4 6 5 3 4 5 4 3 4 5 4 4 5 5 2 9 24 23 14 12 9 5 13 23 30 33 32 32 31 29 29
9 9 9 9 9 10 11 11 11 10 10 9 9 8 7 6 4 3 2 1 3 5 6 5 6 7 6 6 6 5 4 4 4 3 3 4 5 5 2 2 4 3 2 2 2 1 1 2 1 0 1 1 1 0 1 4 5 7 5 3 3 4 3 3 4 4 4 4 4 6 7 14 23 21 13 11 10 13 22 29 33 34 32 30 30 29 30
9 9 9 9 9 10 10 11 10 10 9 9 9 8 8 7 6 5 4 2 4 7 8 8 9 8 7 6 6 6 6 6 6 5 5 4 3 3 2 2 3 3 2 2 2 1 0 0 1 1 1 1 2 2 2 1 1 4 6 3 2 5 6 6 4 3 7 7 7 9 12 16 22 22 18 14 15 21 28 29 30 31 30 29 29 29 32
9 9 9 8 8 9 10 10 10 10 9 8 8 9 8 7 6 5 5 5 8 13 13 11 9 8 8 8 8 7 8 7 7 7 7 4 2 2 3 2 2 2 2 1 2 2 2 1 1 1 1 2 1 1 3 4 2 2 5 5 3 7 11 9 4 5 10 9 7 10 14 19 25 23 15 15 21 27 30 27 26 27 26 25 27 29 33
9 9 8 8 8 9 9 10 10 10 9 8 8 8 9 7 6 6 5 3 6 9 10 9 8 7 8 9 9 8 8 8 7 7 7 5 3 2 3 3 3 1 1 1 1 1 1 1 1 1 1 2 3 1 3 4 3 1 4 4 3 6 13 10 4 6 9 7 6 14 18 23 25 19 16 21 27 27 25 23 24 25 25 25 27 29 29
9 8 8 8 8 9 9 9 10 10 10 8 7 7 8 8 6 5 4 2 1 3 5 6 7 7 8 8 9 9 8 8 8 7 7 6 4 2 2 3 2 1 0 1 1 1 0 0 0 1 2 3 4 3 3 4 4 3 4 4 3 6 10 9 6 7 8 9 11 19 22 21 17 16 21 28 29 25 22 21 22 23 25 26 27 26 26
9 8 8 8 8 9 9 9 10 10 10 9 6 5 7 8 7 5 4 2 1 3 4 4 5 7 8 8 9 9 9 9 8 8 7 7 6 4 3 2 2 3 3 3 4 2 1 2 2 2 3 4 5 5 5 7 8 7 6 6 6 8 8 8 9 8 8 9 13 20 19 13 12 20 27 28 26 25 23 22 22 22 25 28 29 27 27
9 8 8 8 9 9 9 9 9 9 9 9 6 3 5 7 7 6 4 2 1 2 3 4 5 8 10 10 10 10 10 9 9 8 8 8 7 5 4 4 4 4 4 5 5 4 3 4 5 4 4 7 8 7 6 7 8 6 6 8 9 8 7 9 9 6 6 9 13 17 14 11 18 28 30 26 24 23 22 24 24 23 26 32 34 34 32
9 9 9 9 9 9 9 9 9 9 9 9 7 4 3 5 7 7 5 3 2 1 5 10 9 7 8 10 10 10 10 10 9 9 8 8 7 6 7 7 7 6 4 3 4 6 6 5 5 4 5 6 6 5 4 5 4 4 5 9 12 10 8 10 9 7 9 13 16 18 18 20 26 30 28 25 25 23 23 26 26 23 28 34 35 36 37
10 10 10 9 9 9 9 9 9 8 9 9 7 4 3 3 5 7 7 4 3 3 11 15 9 5 6 8 9 9 11 11 10 9 9 9 8 8 8 8 10 10 8 6 8 9 9 8 6 5 4 4 3 3 3 3 3 4 7 11 12 10 10 12 11 12 15 16 18 21 24 27 30 28 24 23 24 24 25 28 26 26 31 34 34 34 34
11 10 10 10 9 9 9 9 8 8 8 8 7 5 2 2 4 7 6 4 4 5 8 8 5 4 7 11 11 9 10 11 10 10 10 9 9 9 8 9 10 10 9 9 10 9 7 7 6 6 7 6 4 2 2 3 2 4 9 13 12 11 12 12 12 14 17 18 20 23 26 28 28 25 22 22 23 24 25 26 28 31 32 32 32 31 29
11 11 10 9 9 8 8 8 7 7 7 8 8 5 3 3 5 6 5 3 3 4 5 7 7 6 5 9 13 11 9 10 10 9 9 9 10 9 9 10 11 11 11 12 12 9 6 5 6 6 7 8 7 4 3 3 2 4 11 15 14 14 14 13 13 16 18 20 23 24 22 21 21 22 24 25 25 24 25 27 30 32 30 28 28 27 25
12 12 11 9 8 8 7 7 6 6 7 9 8 6 5 4 3 4 4 4 4 4 4 6 6 3 2 3 10 13 11 8 9 9 8 8 9 10 10 11 12 13 12 11 9 7 7 8 9 8 8 9 8 5 3 4 3 7 13 16 16 15 15 15 16 17 18 21 23 23 19 17 17 21 24 25 25 25 28 31 32 30 26 26 25 23 23
13 12 11 9 8 7 6 5 5 5 7 9 9 9 8 7 6 6 6 6 5 4 3 3 3 2 1 2 5 13 13 8 7 8 6 5 6 7 8 9 9 9 9 8 5 5 5 7 9 9 9 9 7 5 3 5 7 10 15 17 17 17 16 16 16 18 19 20 20 19 19 20 21 21 20 21 23 26 29 32 32 28 25 23 22 23 24
13 12 10 8 7 6 5 4 4 4 5 7 11 13 14 12 10 8 6 6 4 4 6 6 2 1 1 2 1 10 14 9 5 6 5 4 5 5 4 5 6 6 7 8 6 5 5 5 6 6 6 7 6 4 3 7 11 14 16 17 17 17 16 16 16 18 20 20 17 16 17 20 21 20 21 24 26 27 28 30 29 27 25 23 23 25 26
12 10 8 7 6 5 5 4 4 3 3 6 10 13 14 13 13 12 10 7 5 4 6 8 4 2 2 1 1 8 14 10 6 6 5 3 4 4 3 3 4 5 5 6 5 5 4 4 3 3 3 4 4 3 4 9 14 17 18 17 16 16 16 17 18 20 20 19 17 15 16 17 19 21 24 26 28 29 30 29 26 25 24 24 25 27 26
10 9 7 6 6 5 5 4 3 2 3 6 7 9 9 10 11 12 12 12 11 9 6 5 5 3 3 1 2 9 13 9 7 7 5 2 3 3 2 2 3 3 4 4 4 4 4 3 2 3 3 3 3 3 5 10 14 17 18 16 14 14 14 17 20 20 19 17 15 14 15 17 19 23 28 30 30 31 30 29 27 26 24 25 28 29 28
9 8 6 6 5 5 5 4 3 2 4 6 5 4 5 6 6 7 10 13 16 16 12 8 5 5 5 2 3 10 11 7 6 7 5 3 3 3 3 2 2 2 3 3 4 4 5 5 4 3 3 3 4 3 6 9 12 16 16 14 12 12 15 17 19 18 17 16 13 14 16 16 18 26 32 33 33 35 34 32 31 29 27 30 36 36 33
8 6 6 6 5 4 4 4 4 5 6 6 5 2 3 5 3 4 8 11 12 14 15 11 6 6 6 3 5 9 9 6 5 4 4 4 3 2 3 3 2 2 1 2 2 3 3 4 4 3 3 5 6 4 7 10 12 15 14 11 10 13 17 19 18 16 17 16 15 16 18 19 23 30 31 28 29 33 35 34 32 29 27 32 38 38 36
7 6 5 6 6 5 4 3 4 5 5 4 2 0 3 5 3 4 7 7 6 9 11 9 6 7 7 4 4 7 8 6 4 3 3 4 4 2 1 1 2 2 1 1 3 3 1 1 2 1 2 5 4 4 9 11 15 16 12 9 10 15 19 19 16 14 14 15 14 16 19 23 30 34 30 27 29 32 32 31 30 27 28 34 38 37 36
7 5 4 5 5 6 5 4 3 3 3 1 1 2 4 6 5 4 5 4 4 6 8 7 5 7 8 5 3 5 8 7 4 2 2 3 4 3 1 0 1 1 0 1 2 0 1 1 2 0 1 3 1 5 10 15 21 18 11 10 14 18 19 18 14 12 13 13 13 16 21 27 31 31 29 28 31 32 31 30 28 27 30 35 36 35 35
6 5 3 4 4 5 6 5 3 2 1 2 3 3 4 4 5 5 4 2 2 3 7 8 6 6 8 8 4 4 6 8 5 2 1 2 4 3 1 0 1 0 1 1 2 1 0 1 0 1 1 3 2 7 14 23 25 18 10 13 18 19 19 17 14 12 13 13 16 21 27 30 30 29 27 27 29 29 30 30 28 29 32 34 34 34 34
6 5 4 3 4 4 4 5 4 3 2 3 3 2 2 2 3 4 4 3 2 3 7 8 7 6 8 8 6 4 5 7 6 2 1 2 4 3 0 0 0 0 1 2 2 1 1 1 0 1 3 4 3 11 21 28 24 14 10 14 18 18 18 17 13 12 13 16 21 27 30 30 29 27 26 26 26 26 27 28 28 30 32 33 33 34 34
7 6 3 2 4 4 3 5 6 5 3 3 3 2 2 2 1 1 1 2 3 4 6 8 10 8 6 6 6 4 4 5 5 2 1 3 4 2 0 0 1 0 1 2 1 0 1 1 0 1 4 4 5 14 25 28 19 11 11 15 17 18 19 16 12 11 14 19 24 29 30 29 28 26 24 24 25 25 26 26 27 29 32 33 33 34 34
6 6 3 0 3 5 3 3 6 6 3 2 2 1 1 2 1 0 1 3 3 4 7 10 11 8 5 5 6 4 3 4 4 2 2 3 3 1 1 2 2 1 1 1 1 0 1 0 1 1 4 6 10 20 27 24 14 10 14 17 18 19 19 14 11 13 17 22 27 30 28 27 27 26 24 24 24 25 26 27 27 29 31 32 33 33 34
6 6 3 1 4 8 5 2 4 5 2 1 1 1 0 2 2 1 3 5 5 6 10 13 11 7 5 5 4 3 3 4 3 2 2 2 2 1 1 1 2 1 0 0 0 0 1 1 2 2 5 9 17 24 26 18 10 13 18 18 18 19 17 12 11 15 19 24 29 29 27 27 27 26 25 25 24 24 26 27 28 29 31 32 32 33 34
5 6 4 2 3 7 5 1 2 3 1 0 1 1 1 2 3 4 6 7 8 9 12 11 8 5 4 4 2 3 4 4 2 2 3 2 0 2 1 1 1 1 1 1 1 1 1 3 3 4 8 15 22 26 23 14 10 15 18 18 17 17 14 11 14 19 22 25 28 27 26 26 25 25 25 25 24 24 26 26 27 28 30 31 33 34 34
5 5 5 3 2 4 4 2 1 1 1 1 1 1 2 4 5 6 7 8 8 9 9 7 4 2 3 3 2 2 5 4 2 2 3 1 1 0 1 0 1 1 1 2 1 1 2 3 4 7 15 22 25 24 20 12 11 16 20 19 18 17 13 12 17 22 24 25 26 26 25 25 24 24 24 25 24 24 25 25 26 27 28 30 32 33 34
5 5 4 3 2 1 2 2 2 1 1 1 2 3 4 5 5 5 6 7 8 7 6 5 3 2 1 2 1 1 3 4 2 2 2 1 1 0 2 1 1 1 1 1 1 3 4 4 6 13 21 25 24 22 17 11 12 18 22 21 19 16 13 15 20 23 23 24 25 24 24 24 24 24 24 25 24 24 25 25 25 27 28 30 32 32 33
8 6 5 5 4 2 3 4 3 1 1 2 3 3 3 4 4 4 5 7 7 4 2 2 2 1 1 2 1 0 2 4 2 1 2 2 1 1 1 1 2 1 1 2 2 5 5 7 13 20 24 25 24 21 15 12 15 21 22 20 17 15 15 17 21 22 22 23 24 23 23 24 24 24 24 25 25 25 25 25 26 27 28 29 30 32 32
10 8 7 5 4 3 4 3 1 0 1 2 2 2 3 3 4 4 5 6 6 3 1 1 2 1 1 1 1 1 1 2 1 1 1 1 1 1 1 2 2 1 0 1 3 5 7 12 19 23 25 24 22 19 16 16 20 22 20 18 18 17 17 19 20 21 21 21 21 21 22 22 23 24 24 24 25 25 25 25 26 27 27 28 29 31 32
7 7 6 5 3 5 5 3 0 0 1 0 1 2 3 4 5 5 4 5 5 3 1 1 1 1 0 1 1 1 0 1 1 0 0 1 2 2 2 2 1 1 2 3 4 7 12 18 22 24 24 23 20 17 18 20 22 20 18 19 19 18 18 18 19 20 20 20 20 21 21 22 22 23 23 23 24 25 25 25 26 26 27 28 29 30 32
5 5 5 5 5 7 6 3 1 1 2 1 1 2 4 5 6 5 4 3 3 2 2 2 1 1 0 1 1 2 1 1 0 0 1 2 3 4 2 1 1 1 3 4 7 11 17 21 23 23 23 22 19 19 20 21 20 18 18 19 19 18 18 18 19 20 20 20 20 20 21 21 21 22 22 23 24 26 26 27 27 27 27 28 29 29 30
Wind_Direction
344 349 351 346 342 342 344 343 343 345 346 348 350 349 346 330 308 322 350 1 5 354 174 146 292 55 64 60 59 19 346 352 332 225 204 218 249 250 244 252 269 298 341 318 306 305 280 266 285 310 335 39 41 7 342 339 305 281 276 83 59 332 261 268 280 275 151 100 101 84 54 296 249 233 227 274 299 320 301 297 331 312 275 273 272 268 282
338 343 343 340 339 342 344 344 346 349 349 351 353 350 339 324 317 350 3 7 12 10 355 338 359 52 97 146 93 114 169 260 286 264 234 230 274 277 274 317 280 335 359 295 290 333 305 285 6 357 336 17 54 14 5 3 354 359 350 6 15 317 260 292 303 298 301 114 111 105 135 249 277 254 122 82 54 62 359 286 287 276 262 252 260 270 289
332 336 336 337 339 341 344 346 348 350 350 353 356 353 342 327 333 19 10 21 45 83 60 2 344 22 329 273 32 30 188 219 258 287 312 273 288 295 317 22 307 295 316 269 263 268 269 295 33 28 312 19 95 23 12 125 16 19 26 359 349 299 287 297 299 306 312 315 328 348 328 314 310 310 116 111 113 135 273 281 269 265 270 265 260 269 291
327 331 333 335 337 340 344 346 348 351 350 355 359 359 353 329 342 1 3 29 55 80 70 24 330 351 328 299 65 325 309 129 204 247 260 247 253 276 293 349 274 243 253 273 263 226 215 264 336 314 296 28 94 6 343 108 356 3 25 20 354 288 281 271 267 275 286 300 312 322 326 312 302 306 321 145 145 159 277 272 266 296 311 285 271 291 306
327 329 330 332 335 340 346 346 348 350 349 355 1 3 4 341 345 3 333 16 54 78 64 28 5 19 333 330 62 337 319 73 178 211 227 268 261 257 240 228 251 254 296 296 289 229 209 221 296 303 286 332 77 78 26 54 313 3 31 30 350 268 269 284 273 267 274 288 297 302 305 298 297 313 323 316 143 147 208 247 272 313 318 289 305 326 318
328 327 327 332 336 341 344 341 344 347 346 355 360 1 8 9 58 39 322 4 32 49 36 23 20 43 339 331 82 318 308 330 320 219 186 238 239 246 217 201 244 273 312 312 310 308 274 230 178 302 301 324 300 182 105 80 35 45 92 92 16 280 271 37 19 273 277 277 280 287 290 291 300 313 321 325 338 162 209 254 281 302 297 287 310 319 309
326 326 328 334 338 341 343 339 340 341 341 351 356 352 4 18 68 115 220 33 25 341 1 356 315 10 350 279 148 298 304 333 3 49 225 219 171 224 279 45 255 278 294 289 295 320 320 288 237 17 354 313 296 289 65 104 100 36 170 111 28 288 266 99 168 278 279 270 272 282 274 289 315 329 345 346 342 311 256 272 292 297 287 290 304 306 301
327 329 333 339 342 344 345 339 338 338 336 341 344 341 348 338 336 195 207 143 73 358 327 293 266 194 245 237 114 289 289 327 8 40 257 289 119 175 286 5 38 336 283 260 274 338 355 323 319 9 333 298 313 317 350 50 85 219 164 88 38 277 326 91 201 287 293 254 168 194 210 269 338 30 29 8 359 359 337 304 311 311 300 300 306 303 299
332 336 338 340 340 339 338 333 331 330 329 331 327 323 327 310 297 260 232 174 95 338 279 269 277 215 133 359 45 290 307 1 351 315 204 315 1 107 320 341 339 237 243 256 289 5 14 336 325 338 289 298 330 334 342 354 333 192 146 59 197 227 283 279 268 300 310 117 148 263 239 111 88 50 26 8 359 357 343 328 326 321 314 311 309 305 309
338 339 339 339 338 337 337 333 331 327 324 326 318 310 315 311 305 287 276 265 99 331 282 256 287 358 45 12 18 321 349 28 347 309 152 114 342 312 321 326 304 265 265 293 337 0 351 311 307 300 269 272 292 305 350 358 338 335 146 225 352 338 298 308 329 305 302 30 329 310 305 134 122 59 30 9 360 354 342 333 326 318 314 313 311 321 336
343 343 343 344 341 341 342 340 339 335 327 324 316 308 310 307 304 299 283 274 108 327 299 291 331 28 49 8 319 300 315 26 6 318 19 87 13 338 330 306 293 296 338 339 326 324 316 309 325 328 242 186 149 97 78 61 37 20 3 232 69 23 288 302 333 296 298 324 322 304 280 233 120 85 42 12 5 358 339 327 322 317 317 324 328 334 339
348 348 346 345 342 341 343 343 343 341 334 329 318 310 310 301 295 276 282 295 78 230 285 353 21 1 14 337 309 301 315 334 308 294 317 356 353 349 347 291 292 309 324 317 319 322 319 316 118 114 114 109 102 96 81 69 63 47 26 10 4 254 277 298 309 274 291 312 321 311 317 62 141 110 33 12 2 351 339 328 323 323 331 349 349 340 339
350 350 347 348 346 344 345 344 343 341 337 334 325 316 311 297 288 202 258 300 28 120 297 334 338 299 299 300 297 295 312 313 298 286 296 304 332 347 320 261 272 282 296 314 321 309 276 234 183 150 136 136 123 102 81 64 58 55 49 29 345 296 293 303 285 283 297 313 328 327 13 88 111 41 15 6 355 352 346 332 327 341 358 5 353 339 338
353 353 350 349 348 346 347 346 345 346 342 337 334 325 313 296 280 234 232 292 16 74 314 310 354 343 330 309 286 287 278 269 283 340 294 269 287 306 287 271 265 274 300 317 293 251 267 268 244 231 178 166 168 129 108 80 53 45 48 38 352 305 302 316 315 343 339 318 314 300 249 139 73 33 9 2 354 347 337 314 314 9 21 5 350 339 336
355 354 352 351 352 353 355 356 355 358 356 352 352 340 323 307 278 248 225 283 307 92 61 6 356 354 351 352 326 308 268 181 192 166 183 252 280 291 298 293 271 279 320 320 269 254 280 298 304 305 280 214 315 38 140 128 78 48 37 41 17 325 321 326 315 333 346 310 314 315 281 268 50 21 1 2 349 331 321 296 279 25 14 358 348 339 333
358 358 359 1 4 6 7 9 10 12 14 12 12 8 353 330 293 249 207 262 310 326 57 359 345 338 335 10 25 349 331 343 342 248 168 144 197 304 320 316 282 315 359 306 273 271 276 280 300 312 327 351 341 325 257 168 111 83 70 99 81 14 295 286 289 299 351 331 315 316 305 355 40 8 354 357 343 327 318 281 246 14 2 350 340 331 327
5 8 10 11 14 16 17 19 19 21 25 25 22 22 15 349 321 259 214 234 36 52 330 323 341 344 323 321 15 6 349 342 332 294 246 88 124 296 324 327 299 308 341 304 271 256 276 286 285 296 330 36 349 301 306 349 24 54 104 120 72 32 346 336 333 324 336 328 304 307 325 45 20 357 351 352 340 324 306 268 315 355 346 338 332 326 325
12 15 17 18 21 23 24 27 28 30 32 30 28 28 24 8 340 302 204 161 77 82 57 7 20 40 33 20 24 16 352 339 316 285 293 98 120 313 318 307 297 290 292 308 299 289 300 305 322 319 327 83 327 302 339 7 358 5 1 336 28 26 358 3 16 338 329 312 302 316 338 60 12 357 355 352 340 318 285 296 327 338 333 328 327 326 328
19 21 24 27 29 30 32 33 32 33 33 30 30 29 25 21 16 56 140 161 98 112 96 35 53 79 94 71 54 46 21 2 336 311 303 131 19 335 300 208 228 310 250 274 293 308 310 327 67 330 303 97 48 357 27 29 3 360 360 356 20 7 339 350 18 340 331 311 308 311 246 52 14 360 354 359 357 323 304 323 324 328 326 322 323 327 330
24 28 31 34 35 34 34 31 29 30 30 29 30 30 28 30 35 62 119 139 107 101 96 77 73 80 85 80 68 63 44 12 352 346 350 351 343 332 303 193 31 339 267 285 332 350 329 351 47 313 307 354 25 82 86 79 55 24 22 50 25 346 320 1 14 348 322 305 326 331 295 8 8 2 356 12 19 329 323 328 324 324 323 320 322 327 330
29 34 34 36 35 30 26 23 23 23 24 26 30 31 34 39 44 68 98 139 133 106 91 89 91 87 85 82 74 75 77 50 28 27 8 336 338 342 328 343 1 359 341 329 325 321 358 355 2 292 296 332 3 20 110 124 90 42 39 73 34 7 354 348 358 12 357 318 332 347 329 346 2 1 343 341 346 335 337 334 325 321 323 323 323 324 329
31 33 33 32 28 22 18 18 18 18 19 25 28 30 37 45 52 65 65 70 118 113 101 100 100 92 89 87 76 72 70 57 45 38 14 345 351 10 357 333 347 8 8 332 303 287 81 316 301 299 302 358 68 51 31 132 119 41 34 36 58 53 19 325 288 350 338 292 282 321 334 347 352 342 328 331 340 340 338 332 323 321 323 323 321 323 328
29 28 28 26 19 15 14 15 16 16 17 22 27 31 35 42 48 49 42 63 96 99 96 97 97 88 83 80 73 63 53 47 44 34 24 15 10 16 18 13 359 1 11 340 308 312 330 330 321 339 23 17 20 78 70 53 54 64 43 32 65 54 18 337 286 332 325 291 288 333 347 347 339 330 333 346 342 336 333 328 325 324 324 325 327 327 327
27 24 22 18 13 11 11 12 14 13 14 18 25 29 32 35 35 28 22 53 97 95 89 85 79 76 74 68 61 56 49 45 40 31 28 28 19 10 14 6 5 31 63 45 351 298 358 26 326 325 83 20 344 35 93 67 58 66 33 26 60 41 14 351 322 337 325 297 329 353 348 338 331 332 344 340 331 329 332 332 330 327 326 330 331 329 327
24 21 18 13 10 9 7 8 10 10 11 14 18 25 31 30 23 19 21 31 129 121 99 79 70 76 79 68 57 52 47 43 34 26 27 25 15 4 347 342 359 102 134 69 104 138 36 45 292 113 89 28 2 30 83 74 56 48 46 43 5 345 352 345 329 326 307 289 322 342 337 325 322 334 337 329 326 330 334 334 331 327 327 329 329 329 330
17 14 10 6 4 3 1 2 3 5 8 8 6 16 26 25 21 19 15 5 171 140 113 92 82 83 76 63 56 52 45 39 33 26 24 24 24 29 29 20 53 89 93 95 99 98 76 64 54 47 46 34 37 56 80 83 75 69 66 45 350 323 330 335 325 314 299 299 328 341 336 317 317 330 330 327 329 332 332 332 332 330 332 332 328 327 329
9 7 3 1 358 355 355 357 358 1 4 2 356 348 4 17 21 17 11 21 142 128 97 104 111 96 76 61 57 54 43 36 32 26 27 33 36 42 57 62 72 92 103 100 92 85 78 67 53 45 63 77 76 72 78 92 90 80 59 28 2 347 343 340 332 319 313 326 342 346 335 312 317 326 328 329 333 332 332 335 334 333 337 336 330 327 328
0 357 355 355 354 352 352 353 354 357 1 360 357 343 340 6 19 14 13 18 312 259 125 120 117 101 73 56 52 51 42 33 31 30 33 40 45 56 70 75 83 101 118 112 85 74 69 71 76 83 92 91 86 84 99 105 94 74 41 15 6 2 349 337 329 312 310 323 337 339 325 310 313 321 326 330 332 331 333 335 332 330 335 336 333 330 330
348 347 347 348 349 350 351 351 351 357 1 3 4 359 337 349 9 10 14 26 29 114 125 119 107 82 62 51 46 48 41 32 30 35 40 48 58 68 80 87 90 95 97 90 81 76 72 77 79 72 68 74 81 108 115 86 60 57 32 8 360 354 340 331 322 311 310 318 327 328 319 310 312 318 324 329 331 329 330 332 332 330 331 334 333 331 329
344 343 342 342 344 346 350 352 353 357 3 6 8 8 352 330 349 358 7 38 73 107 124 121 105 90 78 59 48 44 38 32 33 38 46 59 71 76 84 94 94 92 88 85 84 82 80 82 76 59 56 66 82 106 74 38 57 58 25 4 351 343 337 332 326 320 318 318 318 317 313 309 312 318 323 328 331 330 328 329 331 329 328 330 330 329 328
348 346 343 343 344 345 350 355 356 359 6 9 9 12 353 318 332 350 5 49 93 102 111 110 109 116 94 56 44 40 35 33 37 43 55 69 79 82 86 93 96 92 84 80 80 76 66 71 77 64 54 61 77 92 71 58 67 15 2 353 343 339 337 332 327 324 319 317 317 314 310 309 316 323 326 327 331 332 329 328 329 328 327 327 328 327 326
351 349 347 347 347 348 354 359 0 7 12 11 13 17 5 347 358 29 49 74 98 108 107 103 102 120 161 66 43 36 30 29 34 40 54 72 81 85 87 89 93 92 84 78 75 67 62 73 79 70 53 59 80 96 77 57 30 350 346 343 338 338 335 328 325 324 322 323 324 320 317 320 326 326 324 325 329 331 330 328 328 328 326 326 326 326 326
351 350 350 351 353 357 3 7 14 26 26 26 36 45 46 53 70 79 76 76 83 89 92 103 109 91 140 152 44 26 22 22 27 29 38 66 81 87 86 82 80 75 66 64 71 79 84 89 86 77 61 58 76 104 82 41 12 346 341 339 336 335 331 326 325 325 325 327 326 319 317 320 323 323 322 323 325 327 327 327 328 327 327 327 327 328 329
351 351 353 356 2 10 18 27 43 47 42 55 66 65 64 69 71 69 69 67 68 72 66 68 94 64 41 175 144 18 16 15 18 19 25 53 74 85 89 73 62 56 55 63 79 96 96 86 84 85 68 46 52 84 61 14 357 345 339 337 334 333 331 328 328 328 327 327 324 317 314 316 320 324 326 326 326 326 327 328 329 330 331 331 331 331 330
352 355 359 4 16 30 38 45 54 57 78 95 86 73 71 70 62 57 57 50 51 73 59 49 58 42 3 185 169 7 6 6 13 16 20 42 62 71 84 69 51 48 55 64 71 80 79 62 57 83 69 34 44 66 17 351 346 343 339 335 336 338 336 332 330 328 327 326 324 320 320 323 326 328 328 328 328 328 329 330 331 332 331 331 331 332 330
357 1 9 21 32 41 45 43 37 57 131 135 108 80 73 66 55 55 56 52 57 73 70 56 59 33 348 294 324 350 353 358 8 11 15 30 36 41 67 85 66 58 61 64 64 61 56 44 53 81 68 53 79 70 12 348 343 341 340 337 338 340 337 331 328 327 327 328 328 328 330 333 333 332 331 330 329 330 331 333 335 336 334 332 334 335 331
6 10 21 35 40 41 47 43 37 76 140 151 140 101 60 39 40 46 45 48 56 61 64 76 74 22 353 301 319 340 347 357 6 8 18 27 19 30 58 68 91 113 89 65 67 69 57 53 71 84 70 97 122 80 15 354 345 342 340 337 339 340 336 332 329 328 329 333 336 337 337 336 335 335 333 331 331 333 335 336 338 339 336 333 336 337 335
13 20 33 42 40 37 39 42 61 101 126 136 139 118 20 14 27 28 26 36 47 48 51 66 62 11 355 327 332 351 359 355 344 360 28 21 6 52 80 59 83 144 123 51 94 115 77 60 75 77 86 132 136 72 12 356 349 346 341 336 340 341 337 335 335 337 338 340 343 347 348 342 336 335 334 331 330 333 335 336 338 338 333 332 335 338 338
18 24 38 48 48 46 48 64 93 115 122 118 122 69 4 15 27 15 14 28 38 35 40 52 42 12 6 349 342 5 11 353 324 344 27 16 7 34 67 42 86 137 157 73 129 145 105 72 107 104 140 160 149 25 6 355 351 349 342 333 338 341 338 337 339 341 340 336 335 340 343 338 334 334 333 332 332 333 334 336 337 335 331 333 337 340 341
20 24 36 53 55 52 55 72 105 124 115 72 43 44 32 32 33 17 2 19 46 38 28 22 10 8 12 7 341 355 8 7 355 341 356 360 3 4 337 5 86 123 235 83 103 183 268 132 136 277 182 156 110 9 360 352 350 349 338 323 332 338 338 336 336 337 334 328 322 325 329 331 333 335 335 333 334 334 335 337 337 333 332 335 340 342 343
23 26 35 53 57 54 57 65 82 112 96 45 37 44 36 27 25 20 11 23 60 23 4 2 360 356 358 359 342 326 352 3 0 328 312 348 356 350 318 124 79 128 188 63 37 327 252 115 67 315 98 114 61 2 352 347 347 345 329 320 330 337 338 335 336 338 333 320 315 323 329 333 337 338 337 336 335 335 335 337 337 335 335 338 342 344 345
23 28 36 53 56 53 55 53 46 49 56 43 40 43 21 1 13 25 31 44 39 346 349 359 357 335 333 343 340 312 328 351 357 347 287 333 353 358 8 185 10 166 106 21 351 294 134 98 348 31 81 84 23 354 349 345 342 338 322 324 332 338 337 335 336 338 326 314 317 327 333 336 338 340 339 338 336 335 335 337 338 337 338 341 344 346 348
19 17 19 47 44 36 37 32 28 33 50 46 34 24 1 9 28 31 26 36 22 350 342 348 347 338 333 345 349 331 325 346 3 14 322 336 349 357 46 29 7 16 26 352 314 235 106 93 249 51 54 44 2 347 342 340 337 330 322 327 333 336 336 336 336 328 318 317 325 333 335 335 337 341 343 341 338 337 339 341 341 340 340 342 345 348 350
12 8 5 58 23 15 13 16 21 31 51 42 28 29 342 354 18 346 325 357 4 347 337 340 342 339 329 336 345 343 339 353 8 20 3 356 358 2 65 51 24 343 329 358 344 45 102 200 248 33 35 15 349 339 337 337 334 321 319 326 333 336 338 341 336 322 319 324 331 336 336 335 337 342 346 346 343 341 342 343 344 343 343 343 346 349 351
9 7 15 61 14 13 16 15 19 34 60 37 13 62 310 342 8 356 318 322 323 320 326 333 335 327 316 328 348 2 355 356 11 19 349 339 359 41 57 36 347 332 112 110 346 146 155 279 325 19 20 355 338 334 335 337 327 314 319 327 334 338 342 342 330 323 325 330 334 336 336 336 339 343 347 349 348 345 344 346 346 345 344 344 347 350 353
12 14 35 86 28 17 28 57 10 26 79 208 337 35 353 335 334 311 301 306 310 313 320 327 331 328 328 342 10 24 5 360 18 21 349 327 5 53 29 300 313 20 42 296 276 214 273 335 355 9 352 339 332 332 336 336 316 311 321 329 334 339 344 336 324 325 329 331 333 335 336 337 340 343 346 350 350 348 347 349 349 345 344 346 349 352 355
11 16 38 79 65 16 31 67 45 33 112 182 291 310 308 312 314 308 307 311 314 315 320 328 329 324 342 356 16 25 18 21 40 26 5 350 178 93 15 10 108 35 315 291 295 296 313 342 6 349 334 331 330 332 336 331 307 311 324 332 335 340 340 325 321 328 332 332 334 336 336 337 341 344 346 350 352 350 349 350 349 347 347 348 351 353 355
24 16 31 79 118 5 31 96 125 109 58 326 304 305 312 318 319 318 321 327 325 321 328 338 324 284 333 11 16 354 11 19 32 32 19 17 196 343 8 14 4 293 240 235 295 323 328 338 335 327 327 329 331 333 334 323 306 315 327 333 336 338 332 322 325 332 334 333 335 337 337 338 342 345 346 348 351 351 351 351 350 350 350 350 351 353 355
47 48 64 95 115 120 116 123 126 99 351 337 328 327 331 333 329 322 328 337 336 325 324 351 343 282 310 8 26 71 13 13 8 348 1 18 51 73 11 309 297 281 186 199 294 318 322 317 315 320 325 330 331 331 327 316 313 322 330 333 333 331 325 323 328 334 336 335 336 337 337 339 343 346 347 348 349 351 352 352 351 352 353 351 350 352 354
53 59 68 79 96 128 141 139 131 309 309 330 346 352 352 353 347 337 336 344 347 334 304 334 344 301 268 3 48 79 34 14 359 308 3 54 96 148 237 251 250 243 155 309 310 315 314 313 317 323 328 329 328 325 319 316 321 327 329 329 328 326 323 324 330 335 337 336 336 337 338 341 344 346 347 346 347 349 352 352 352 352 352 351 351 353 354
52 60 66 72 107 145 151 146 86 36 154 118 28 25 22 15 6 353 343 349 357 349 296 283 313 312 263 19 26 50 62 48 48 12 343 112 150 185 245 260 243 273 345 339 320 311 313 317 321 325 327 327 324 319 316 320 326 328 324 324 327 328 325 327 332 335 337 338 339 339 341 343 345 345 346 346 346 348 351 353 353 353 352 353 355 355 354
56 71 82 95 124 143 147 141 119 139 150 135 80 48 34 24 14 2 352 353 359 346 297 269 298 330 5 81 94 116 129 110 51 283 218 187 184 198 229 300 346 326 316 317 313 313 317 320 322 323 325 325 321 316 317 323 327 325 321 325 331 331 327 329 333 335 338 341 341 340 340 342 343 344 346 348 349 350 351 352 353 354 354 355 356 356 354
Height
1565 1564 1562 1562 1561 1560 1558 1557 1556 1554 1553 1552 1551 1550 1549 1548 1547 1546 1545 1544 1544 1543 1543 1544 1545 1545 1547 1550 1550 1551 1551 1551 1551 1551 1551 1551 1551 1550 1549 1548 1548 1546 1546 1545 1544 1543 1539 1536 1535 1535 1535 1539 1543 1546 1546 1545 1545 1543 1539 1537 1541 1540 1533 1530 1525 1514 1514 1525 1529 1528 1530 1529 1525 1524 1524 1526 1527 1527 1528 1527 1528 1529 1525 1521 1520 1512 1498
1564 1563 1562 1562 1561 1559 1558 1557 1555 1554 1553 1552 1551 1550 1549 1548 1547 1546 1545 1544 1544 1543 1544 1544 1544 1546 1549 1550 1550 1550 1551 1551 1551 1551 1551 1550 1551 1550 1548 1548 1549 1548 1549 1547 1545 1544 1542 1537 1537 1538 1538 1541 1545 1546 1546 1546 1545 1544 1542 1541 1544 1539 1529 1528 1527 1517 1513 1518 1520 1523 1527 1525 1521 1520 1525 1529 1531 1534 1536 1532 1532 1531 1522 1518 1519 1509 1495
1564 1563 1562 1561 1560 1559 1558 1556 1555 1554 1553 1552 1551 1550 1549 1548 1546 1546 1546 1545 1544 1544 1546 1546 1545 1547 1549 1549 1550 1550 1550 1551 1551 1551 1551 1551 1551 1550 1549 1549 1550 1549 1549 1548 1546 1546 1544 1540 1540 1542 1541 1542 1546 1547 1546 1547 1546 1546 1547 1546 1546 1541 1532 1530 1531 1527 1522 1518 1516 1520 1523 1522 1519 1520 1528 1534 1534 1536 1536 1531 1531 1528 1519 1516 1517 1508 1495
1564 1563 1562 1561 1560 1558 1557 1556 1555 1554 1553 1552 1551 1550 1549 1548 1547 1546 1546 1545 1545 1546 1548 1548 1546 1547 1548 1548 1550 1550 1549 1550 1551 1551 1551 1551 1551 1551 1550 1550 1550 1549 1549 1547 1544 1544 1545 1544 1544 1544 1542 1542 1546 1547 1546 1547 1547 1547 1548 1547 1546 1542 1536 1534 1532 1530 1527 1523 1521 1523 1525 1525 1523 1522 1528 1534 1537 1538 1537 1534 1530 1525 1522 1518 1512 1507 1504
1564 1563 1561 1560 1559 1558 1557 1556 1555 1554 1553 1552 1551 1550 1549 1548 1548 1549 1548 1547 1546 1547 1548 1549 1548 1549 1548 1547 1550 1550 1548 1549 1550 1551 1551 1551 1551 1551 1550 1550 1549 1548 1548 1546 1542 1543 1545 1545 1546 1546 1544 1544 1546 1547 1547 1547 1547 1548 1548 1548 1548 1543 1537 1537 1537 1533 1530 1528 1525 1525 1526 1527 1526 1527 1529 1531 1535 1539 1541 1538 1530 1526 1529 1522 1509 1510 1514
1563 1562 1561 1560 1559 1558 1557 1556 1555 1554 1553 1552 1552 1551 1550 1549 1550 1551 1551 1549 1548 1548 1549 1550 1550 1550 1549 1549 1551 1550 1548 1548 1548 1550 1551 1551 1552 1550 1548 1549 1549 1548 1548 1547 1543 1542 1542 1542 1544 1546 1546 1546 1545 1544 1547 1548 1548 1548 1548 1548 1549 1543 1538 1542 1544 1539 1535 1532 1528 1526 1527 1528 1528 1530 1531 1531 1533 1538 1541 1539 1533 1532 1534 1526 1515 1517 1518
1563 1562 1561 1559 1559 1558 1557 1556 1555 1554 1553 1553 1552 1551 1551 1551 1550 1551 1551 1551 1551 1550 1551 1551 1551 1550 1550 1550 1550 1550 1548 1548 1548 1549 1550 1550 1551 1551 1548 1547 1548 1548 1548 1548 1545 1543 1543 1542 1545 1546 1547 1547 1545 1542 1544 1547 1548 1548 1548 1548 1550 1544 1538 1543 1548 1543 1534 1529 1527 1528 1530 1531 1531 1532 1533 1532 1532 1534 1537 1537 1534 1532 1532 1526 1521 1520 1517
1562 1561 1560 1559 1558 1557 1556 1556 1555 1554 1553 1553 1552 1552 1551 1551 1551 1551 1551 1551 1552 1552 1552 1552 1550 1549 1549 1548 1549 1550 1549 1548 1549 1550 1550 1549 1550 1552 1550 1548 1549 1549 1549 1549 1547 1546 1547 1547 1547 1549 1548 1547 1546 1543 1543 1545 1547 1548 1548 1549 1550 1545 1540 1543 1546 1539 1528 1526 1530 1531 1530 1532 1533 1534 1535 1534 1533 1533 1534 1535 1533 1531 1529 1526 1523 1521 1515
1561 1561 1560 1559 1558 1557 1556 1555 1555 1554 1553 1552 1552 1552 1551 1551 1551 1551 1551 1550 1552 1552 1552 1551 1549 1547 1548 1548 1549 1550 1550 1550 1550 1550 1550 1550 1550 1551 1551 1549 1550 1549 1549 1549 1548 1548 1550 1549 1549 1550 1549 1547 1547 1546 1545 1546 1547 1548 1549 1550 1550 1547 1542 1540 1541 1535 1525 1525 1530 1527 1528 1534 1537 1539 1540 1538 1537 1536 1536 1535 1533 1532 1530 1526 1523 1520 1515
1561 1560 1559 1558 1558 1557 1556 1555 1554 1554 1553 1552 1552 1551 1551 1551 1551 1551 1550 1550 1551 1552 1551 1550 1548 1547 1549 1550 1551 1551 1551 1552 1552 1550 1550 1551 1552 1551 1552 1551 1550 1547 1547 1549 1549 1550 1550 1550 1549 1548 1548 1548 1548 1547 1547 1547 1547 1546 1549 1550 1550 1549 1545 1539 1540 1537 1526 1522 1526 1524 1526 1533 1537 1541 1544 1542 1540 1539 1537 1536 1535 1532 1530 1527 1523 1521 1519
1561 1560 1559 1558 1557 1556 1556 1555 1554 1553 1552 1552 1552 1551 1551 1551 1550 1551 1550 1549 1551 1552 1550 1549 1548 1549 1551 1552 1552 1552 1552 1552 1553 1551 1550 1551 1552 1552 1552 1552 1550 1547 1548 1550 1550 1550 1549 1548 1548 1548 1548 1548 1548 1548 1548 1548 1548 1548 1549 1550 1550 1552 1549 1542 1542 1541 1530 1524 1526 1522 1519 1526 1534 1541 1544 1542 1541 1541 1540 1538 1535 1531 1529 1528 1525 1524 1524
1561 1560 1559 1558 1557 1556 1556 1555 1554 1553 1552 1552 1552 1551 1551 1551 1550 1551 1551 1549 1550 1552 1551 1549 1550 1551 1552 1552 1552 1552 1552 1553 1553 1553 1552 1552 1553 1552 1552 1552 1551 1549 1550 1550 1549 1549 1549 1548 1548 1548 1548 1548 1548 1548 1548 1548 1550 1550 1550 1550 1550 1551 1549 1544 1544 1544 1536 1529 1529 1524 1521 1528 1537 1540 1541 1542 1542 1541 1539 1537 1534 1531 1529 1529 1530 1530 1529
1561 1560 1559 1558 1557 1556 1555 1555 1554 1553 1552 1552 1551 1551 1551 1551 1550 1551 1551 1549 1549 1551 1551 1550 1552 1552 1552 1552 1553 1552 1553 1553 1553 1553 1554 1553 1553 1552 1552 1552 1551 1550 1550 1550 1549 1549 1547 1545 1546 1547 1548 1549 1548 1549 1550 1550 1550 1551 1551 1551 1551 1550 1548 1545 1543 1542 1537 1533 1534 1533 1531 1535 1539 1539 1540 1542 1541 1539 1538 1535 1532 1531 1532 1533 1534 1533 1530
1561 1560 1559 1558 1557 1556 1555 1554 1553 1553 1552 1552 1551 1551 1551 1551 1550 1550 1551 1550 1549 1551 1551 1550 1551 1552 1552 1553 1553 1552 1552 1553 1553 1553 1553 1553 1553 1552 1551 1551 1551 1550 1550 1550 1549 1549 1545 1541 1539 1539 1541 1544 1544 1545 1549 1551 1552 1552 1552 1552 1552 1550 1548 1546 1543 1542 1542 1541 1537 1533 1529 1532 1539 1544 1545 1545 1545 1544 1544 1540 1534 1533 1535 1535 1534 1531 1529
1561 1560 1559 1558 1557 1556 1555 1554 1553 1553 1552 1551 1551 1551 1551 1551 1550 1550 1551 1550 1550 1551 1552 1552 1552 1553 1553 1553 1553 1552 1551 1551 1552 1552 1553 1552 1552 1552 1551 1551 1550 1550 1550 1550 1548 1547 1544 1540 1537 1532 1531 1534 1535 1538 1544 1549 1552 1554 1553 1552 1553 1551 1549 1549 1546 1543 1544 1544 1541 1535 1530 1532 1543 1549 1548 1549 1548 1546 1545 1542 1535 1532 1534 1535 1533 1531 1530
1561 1560 1559 1558 1557 1556 1555 1555 1554 1553 1552 1552 1551 1551 1551 1551 1550 1550 1551 1551 1550 1551 1553 1554 1554 1554 1554 1554 1554 1553 1552 1551 1551 1550 1550 1551 1552 1551 1551 1551 1550 1550 1550 1550 1548 1546 1543 1542 1539 1534 1532 1534 1536 1538 1539 1541 1546 1553 1554 1552 1552 1551 1549 1549 1547 1544 1545 1548 1547 1541 1534 1538 1549 1552 1548 1548 1548 1543 1542 1539 1531 1529 1534 1538 1536 1534 1531
1562 1561 1560 1559 1558 1557 1556 1555 1554 1553 1553 1552 1551 1551 1551 1551 1551 1551 1551 1551 1552 1553 1554 1555 1555 1555 1554 1554 1554 1554 1553 1552 1552 1550 1549 1550 1551 1551 1551 1551 1550 1551 1550 1549 1548 1545 1542 1541 1539 1535 1535 1539 1542 1541 1538 1537 1543 1550 1552 1551 1551 1551 1550 1548 1548 1547 1547 1551 1550 1539 1534 1544 1554 1552 1549 1548 1545 1541 1540 1537 1530 1530 1537 1541 1540 1537 1533
1562 1561 1560 1559 1559 1558 1557 1556 1555 1554 1553 1553 1552 1552 1551 1551 1551 1551 1551 1552 1552 1554 1555 1555 1555 1555 1555 1555 1555 1555 1554 1554 1553 1551 1549 1550 1551 1551 1551 1551 1551 1550 1551 1550 1547 1544 1542 1542 1542 1540 1539 1542 1545 1543 1540 1543 1549 1552 1552 1552 1554 1555 1554 1552 1553 1552 1549 1551 1552 1542 1540 1551 1556 1551 1549 1548 1541 1538 1542 1543 1541 1542 1542 1541 1540 1539 1535
1563 1562 1561 1560 1560 1559 1558 1557 1556 1555 1554 1554 1553 1553 1552 1552 1551 1551 1552 1552 1552 1554 1555 1556 1555 1555 1555 1556 1555 1555 1555 1554 1553 1552 1549 1548 1551 1551 1551 1551 1551 1550 1550 1549 1547 1546 1543 1543 1547 1548 1542 1541 1545 1545 1547 1554 1558 1556 1556 1557 1559 1562 1560 1555 1556 1558 1553 1552 1553 1546 1544 1552 1556 1553 1552 1549 1546 1548 1552 1552 1551 1550 1546 1542 1540 1538 1535
1564 1563 1562 1561 1561 1560 1559 1558 1557 1556 1556 1555 1554 1553 1553 1552 1552 1552 1552 1552 1552 1554 1556 1556 1556 1556 1556 1556 1556 1555 1555 1555 1554 1553 1551 1550 1552 1551 1549 1549 1550 1550 1550 1548 1547 1548 1546 1544 1548 1549 1545 1543 1545 1547 1553 1562 1564 1562 1563 1565 1568 1570 1566 1558 1558 1562 1560 1555 1554 1553 1553 1554 1555 1555 1554 1553 1556 1561 1559 1555 1552 1551 1548 1544 1540 1537 1536
1565 1564 1563 1562 1562 1561 1560 1559 1558 1557 1557 1556 1555 1554 1554 1553 1553 1552 1552 1553 1553 1554 1556 1556 1556 1557 1557 1557 1557 1556 1556 1556 1555 1555 1554 1553 1553 1552 1549 1550 1552 1552 1551 1550 1549 1549 1549 1548 1549 1549 1548 1546 1547 1549 1554 1560 1564 1566 1567 1568 1572 1573 1571 1568 1566 1567 1567 1563 1559 1559 1560 1559 1559 1560 1560 1559 1562 1563 1559 1554 1551 1548 1546 1543 1539 1537 1535
1565 1565 1564 1563 1563 1562 1561 1560 1559 1558 1558 1557 1556 1555 1554 1554 1554 1553 1553 1553 1553 1554 1556 1557 1557 1558 1558 1557 1557 1557 1557 1557 1556 1556 1555 1555 1554 1553 1553 1554 1554 1553 1554 1553 1551 1549 1550 1550 1550 1549 1548 1548 1550 1555 1558 1557 1562 1569 1569 1569 1573 1576 1577 1577 1573 1570 1571 1569 1563 1562 1563 1563 1564 1565 1564 1562 1562 1561 1558 1556 1552 1548 1546 1543 1540 1537 1534
1566 1566 1565 1564 1564 1563 1562 1561 1560 1559 1559 1558 1557 1556 1555 1555 1554 1554 1554 1554 1554 1555 1557 1558 1558 1558 1558 1558 1558 1558 1558 1557 1557 1557 1556 1555 1554 1554 1554 1554 1554 1554 1554 1554 1553 1551 1551 1551 1550 1549 1551 1553 1554 1557 1559 1561 1566 1572 1572 1573 1576 1577 1578 1577 1574 1572 1572 1567 1562 1563 1565 1565 1566 1566 1563 1562 1561 1559 1557 1555 1552 1549 1547 1544 1541 1537 1534
1567 1567 1566 1565 1565 1564 1563 1562 1561 1560 1559 1558 1558 1557 1556 1556 1555 1555 1555 1554 1554 1555 1557 1559 1559 1559 1560 1560 1559 1559 1559 1558 1557 1557 1556 1556 1555 1554 1554 1555 1554 1554 1554 1554 1554 1553 1552 1553 1553 1551 1554 1559 1559 1557 1560 1567 1572 1573 1574 1577 1578 1577 1578 1577 1574 1576 1575 1566 1560 1564 1566 1566 1566 1564 1562 1562 1561 1559 1557 1554 1551 1549 1546 1543 1541 1538 1535
1569 1568 1567 1566 1566 1565 1564 1563 1562 1561 1560 1559 1558 1558 1557 1557 1556 1556 1555 1555 1555 1555 1557 1560 1561 1561 1561 1561 1560 1560 1559 1558 1558 1557 1557 1556 1556 1555 1555 1555 1554 1554 1554 1554 1554 1554 1553 1554 1553 1552 1556 1561 1562 1561 1563 1570 1574 1575 1577 1582 1582 1579 1579 1578 1577 1577 1575 1567 1564 1566 1567 1567 1566 1563 1562 1560 1558 1556 1556 1554 1551 1548 1545 1542 1540 1537 1534
1569 1569 1568 1567 1566 1565 1564 1563 1562 1561 1560 1560 1559 1559 1558 1557 1557 1556 1556 1556 1555 1555 1557 1560 1562 1563 1562 1562 1561 1561 1560 1559 1558 1558 1557 1557 1556 1556 1555 1555 1555 1555 1555 1554 1554 1554 1554 1554 1554 1555 1558 1562 1565 1567 1570 1573 1577 1579 1581 1585 1586 1583 1581 1581 1580 1577 1573 1568 1567 1567 1565 1563 1563 1562 1561 1560 1556 1554 1553 1551 1550 1547 1543 1540 1537 1535 1534
1570 1569 1568 1568 1567 1566 1565 1564 1563 1562 1561 1560 1559 1559 1559 1558 1557 1557 1556 1556 1556 1556 1557 1560 1563 1564 1563 1563 1562 1562 1561 1560 1559 1558 1558 1557 1557 1556 1556 1555 1555 1555 1555 1555 1555 1555 1555 1556 1558 1561 1564 1566 1568 1572 1575 1577 1579 1581 1584 1586 1586 1585 1583 1583 1581 1578 1574 1572 1571 1571 1567 1563 1561 1561 1560 1557 1556 1554 1551 1549 1547 1544 1541 1538 1533 1529 1528
1571 1570 1569 1568 1567 1566 1565 1564 1563 1562 1562 1561 1560 1559 1559 1559 1558 1558 1557 1557 1556 1556 1557 1560 1563 1564 1563 1563 1563 1563 1562 1561 1560 1559 1559 1558 1557 1557 1556 1556 1556 1556 1556 1556 1556 1557 1557 1560 1564 1567 1568 1569 1571 1575 1578 1578 1579 1583 1586 1587 1587 1587 1586 1585 1583 1581 1578 1575 1574 1574 1571 1566 1562 1560 1559 1557 1554 1552 1550 1547 1545 1542 1539 1536 1532 1526 1522
1571 1570 1569 1568 1567 1566 1565 1564 1564 1563 1562 1561 1560 1559 1559 1559 1559 1558 1557 1557 1556 1556 1557 1560 1563 1565 1565 1565 1564 1564 1563 1562 1561 1560 1559 1559 1558 1558 1558 1557 1557 1557 1557 1557 1558 1559 1561 1564 1568 1569 1570 1570 1572 1576 1578 1579 1581 1585 1588 1589 1589 1589 1588 1586 1584 1582 1580 1577 1576 1574 1571 1566 1562 1560 1559 1557 1554 1551 1548 1546 1543 1541 1538 1535 1531 1526 1521
1571 1570 1569 1568 1567 1566 1565 1564 1564 1563 1562 1561 1560 1560 1559 1559 1559 1558 1558 1557 1557 1558 1558 1560 1563 1565 1566 1566 1565 1564 1564 1563 1562 1561 1560 1560 1560 1559 1559 1559 1559 1558 1559 1560 1560 1562 1565 1567 1569 1571 1572 1572 1572 1576 1580 1582 1583 1586 1589 1589 1589 1588 1587 1586 1585 1582 1580 1578 1577 1574 1570 1565 1561 1559 1558 1556 1554 1551 1548 1545 1543 1540 1537 1533 1529 1526 1522
1570 1569 1569 1568 1567 1566 1565 1565 1564 1563 1562 1562 1561 1560 1559 1559 1559 1559 1558 1558 1558 1559 1559 1560 1563 1566 1566 1566 1566 1566 1565 1564 1563 1563 1562 1561 1561 1561 1561 1560 1560 1560 1561 1562 1563 1564 1567 1569 1571 1573 1574 1573 1574 1579 1584 1585 1586 1587 1588 1589 1588 1587 1586 1585 1584 1582 1579 1577 1574 1572 1569 1565 1562 1558 1555 1553 1552 1550 1547 1545 1542 1539 1535 1532 1528 1524 1520
1570 1569 1568 1567 1567 1566 1565 1565 1564 1563 1563 1562 1561 1560 1560 1559 1559 1559 1559 1559 1559 1559 1559 1560 1563 1566 1566 1567 1567 1566 1566 1565 1564 1564 1564 1563 1563 1563 1563 1562 1562 1563 1563 1564 1565 1568 1571 1572 1573 1575 1576 1575 1577 1581 1585 1587 1589 1590 1589 1588 1587 1586 1585 1584 1582 1580 1578 1575 1571 1568 1565 1564 1562 1560 1556 1553 1551 1549 1545 1542 1540 1537 1533 1530 1526 1522 1519
1570 1569 1568 1567 1567 1566 1566 1565 1565 1564 1564 1563 1562 1561 1561 1560 1560 1560 1560 1560 1560 1560 1560 1561 1563 1565 1566 1567 1567 1567 1566 1566 1565 1565 1565 1565 1564 1564 1565 1565 1565 1565 1565 1566 1568 1571 1573 1574 1575 1576 1577 1578 1579 1582 1585 1588 1591 1591 1589 1588 1587 1585 1583 1582 1580 1578 1576 1574 1571 1567 1564 1562 1561 1559 1557 1554 1551 1548 1545 1541 1537 1534 1531 1527 1523 1520 1517
1570 1569 1568 1567 1567 1566 1566 1565 1565 1565 1565 1564 1564 1563 1562 1562 1562 1561 1561 1561 1561 1561 1561 1562 1563 1565 1566 1566 1567 1568 1567 1567 1567 1566 1566 1566 1566 1566 1566 1566 1566 1566 1568 1569 1570 1572 1574 1575 1576 1577 1580 1580 1581 1583 1586 1589 1591 1590 1589 1587 1586 1584 1582 1580 1579 1577 1574 1572 1570 1567 1565 1562 1559 1557 1555 1552 1549 1546 1543 1539 1535 1531 1527 1524 1521 1518 1514
1570 1569 1568 1568 1567 1567 1566 1566 1566 1566 1566 1565 1565 1565 1564 1564 1564 1563 1562 1562 1561 1561 1563 1564 1566 1568 1568 1567 1566 1568 1568 1568 1567 1567 1567 1567 1567 1567 1567 1567 1567 1569 1570 1572 1573 1574 1575 1576 1577 1579 1582 1584 1585 1588 1590 1591 1590 1589 1588 1586 1584 1582 1581 1579 1577 1575 1572 1570 1568 1566 1563 1561 1558 1555 1552 1549 1546 1543 1539 1536 1533 1529 1525 1521 1518 1515 1512
1570 1569 1568 1568 1567 1567 1567 1566 1566 1566 1566 1566 1566 1566 1566 1565 1565 1565 1564 1563 1562 1563 1565 1567 1570 1572 1573 1570 1569 1569 1569 1568 1568 1568 1567 1567 1567 1567 1567 1567 1569 1572 1573 1573 1574 1576 1577 1577 1579 1581 1584 1586 1589 1591 1591 1591 1590 1588 1586 1585 1583 1582 1580 1578 1575 1573 1570 1568 1566 1564 1562 1559 1556 1553 1549 1546 1543 1540 1536 1532 1529 1526 1522 1519 1516 1513 1509
1570 1570 1569 1568 1568 1567 1567 1567 1566 1566 1566 1567 1567 1567 1567 1566 1566 1566 1565 1565 1564 1565 1567 1569 1573 1576 1576 1574 1573 1572 1570 1569 1569 1569 1568 1568 1568 1568 1568 1568 1570 1573 1574 1575 1576 1578 1578 1579 1580 1583 1586 1588 1590 1591 1591 1590 1589 1587 1585 1583 1582 1580 1579 1577 1574 1571 1569 1567 1565 1563 1561 1559 1556 1552 1547 1543 1539 1536 1532 1529 1527 1524 1520 1517 1513 1510 1506
1571 1570 1569 1569 1568 1568 1567 1567 1567 1567 1567 1567 1567 1567 1567 1567 1566 1566 1566 1566 1567 1568 1569 1572 1575 1577 1576 1575 1574 1573 1571 1571 1570 1569 1569 1569 1569 1568 1568 1570 1572 1573 1575 1577 1578 1579 1579 1581 1583 1586 1588 1589 1590 1590 1590 1589 1588 1586 1584 1582 1580 1579 1577 1574 1572 1569 1567 1565 1564 1562 1560 1557 1554 1552 1548 1544 1539 1536 1532 1529 1526 1524 1521 1517 1513 1509 1505
1571 1570 1570 1569 1569 1569 1568 1568 1568 1568 1568 1568 1568 1568 1568 1567 1567 1568 1569 1569 1570 1571 1572 1574 1577 1578 1577 1576 1575 1574 1573 1573 1571 1570 1570 1571 1570 1569 1570 1571 1572 1574 1575 1576 1578 1579 1580 1582 1585 1587 1588 1589 1589 1589 1589 1588 1587 1585 1583 1581 1579 1577 1575 1572 1570 1569 1567 1565 1563 1561 1559 1556 1553 1549 1546 1543 1539 1535 1532 1529 1526 1523 1520 1516 1512 1508 1503
1571 1571 1570 1570 1570 1569 1569 1569 1569 1569 1569 1569 1569 1568 1569 1569 1570 1572 1572 1572 1574 1576 1576 1577 1579 1578 1578 1578 1577 1575 1574 1574 1573 1572 1573 1572 1572 1571 1571 1571 1572 1574 1575 1576 1578 1579 1580 1582 1584 1585 1586 1587 1589 1588 1588 1587 1585 1583 1581 1579 1577 1575 1573 1571 1569 1568 1566 1564 1563 1561 1559 1556 1553 1549 1545 1542 1537 1534 1530 1528 1525 1522 1519 1515 1511 1507 1503
1572 1571 1571 1570 1570 1570 1570 1569 1569 1569 1569 1569 1569 1571 1572 1573 1574 1575 1575 1575 1577 1580 1580 1580 1580 1579 1578 1578 1578 1576 1575 1575 1574 1574 1574 1573 1572 1572 1572 1572 1573 1574 1575 1577 1580 1579 1579 1582 1584 1584 1585 1587 1588 1588 1587 1585 1584 1582 1580 1577 1575 1573 1571 1569 1567 1566 1564 1562 1560 1558 1556 1553 1551 1547 1544 1540 1537 1533 1529 1526 1523 1521 1518 1514 1510 1506 1502
1572 1572 1571 1571 1571 1570 1570 1570 1570 1570 1570 1570 1571 1574 1578 1578 1577 1578 1579 1579 1581 1583 1582 1581 1581 1580 1579 1578 1578 1577 1576 1575 1574 1574 1574 1573 1573 1573 1573 1572 1572 1572 1575 1579 1581 1579 1580 1584 1586 1585 1585 1587 1588 1586 1585 1584 1582 1581 1579 1576 1574 1572 1569 1567 1566 1564 1563 1560 1558 1556 1553 1551 1548 1546 1543 1539 1536 1533 1529 1525 1522 1518 1515 1512 1509 1505 1501
1572 1572 1571 1571 1571 1571 1571 1571 1571 1572 1574 1575 1575 1576 1579 1581 1582 1583 1583 1583 1584 1584 1583 1582 1582 1580 1579 1578 1578 1577 1576 1575 1575 1574 1574 1574 1573 1573 1573 1572 1573 1575 1578 1581 1580 1578 1580 1585 1586 1585 1585 1587 1587 1585 1584 1582 1581 1579 1577 1575 1573 1570 1568 1566 1564 1563 1561 1559 1556 1554 1551 1548 1546 1544 1541 1538 1534 1531 1528 1524 1521 1517 1513 1510 1507 1503 1499
1573 1572 1571 1571 1572 1571 1571 1573 1573 1574 1577 1581 1582 1581 1581 1582 1583 1584 1584 1584 1584 1585 1584 1583 1582 1581 1579 1578 1577 1576 1576 1576 1575 1574 1575 1575 1575 1574 1573 1574 1577 1579 1580 1581 1581 1582 1585 1587 1586 1585 1586 1587 1585 1584 1583 1581 1579 1577 1575 1573 1571 1569 1566 1565 1563 1562 1559 1557 1554 1551 1549 1546 1544 1542 1539 1536 1533 1529 1525 1522 1519 1515 1512 1508 1505 1502 1498
1573 1572 1571 1572 1573 1572 1572 1575 1578 1578 1581 1585 1587 1586 1585 1585 1584 1585 1586 1585 1585 1585 1584 1583 1582 1581 1580 1578 1577 1577 1577 1576 1575 1575 1577 1576 1575 1575 1576 1578 1580 1581 1580 1581 1583 1584 1585 1585 1584 1585 1586 1586 1584 1583 1581 1579 1577 1575 1573 1571 1569 1567 1565 1563 1562 1560 1557 1555 1552 1549 1547 1544 1541 1539 1537 1534 1531 1527 1524 1521 1517 1513 1510 1507 1504 1500 1497
1573 1573 1572 1573 1575 1577 1577 1580 1582 1584 1585 1587 1588 1587 1587 1587 1587 1587 1587 1586 1585 1585 1583 1582 1582 1581 1580 1579 1578 1577 1577 1576 1576 1578 1578 1576 1575 1578 1580 1581 1581 1581 1580 1580 1581 1582 1582 1582 1584 1585 1585 1584 1583 1581 1579 1578 1576 1573 1571 1569 1567 1565 1564 1562 1560 1558 1556 1553 1550 1548 1545 1542 1540 1537 1535 1532 1529 1526 1523 1520 1517 1513 1509 1506 1502 1499 1495
1574 1574 1573 1573 1578 1582 1583 1584 1586 1587 1587 1588 1588 1588 1588 1588 1587 1587 1586 1585 1585 1584 1583 1582 1582 1581 1580 1580 1579 1578 1578 1578 1578 1579 1579 1578 1578 1581 1582 1580 1581 1584 1583 1580 1580 1582 1583 1583 1583 1584 1584 1583 1581 1579 1577 1576 1574 1572 1569 1568 1566 1564 1562 1561 1559 1556 1554 1551 1548 1546 1543 1541 1538 1536 1533 1531 1528 1525 1522 1519 1516 1513 1509 1505 1502 1498 1494
1575 1575 1575 1577 1582 1585 1586 1586 1588 1588 1588 1588 1588 1588 1588 1587 1587 1586 1586 1585 1584 1583 1582 1582 1582 1581 1581 1580 1579 1579 1579 1578 1577 1579 1581 1580 1579 1580 1579 1578 1581 1586 1587 1584 1582 1582 1583 1583 1583 1583 1582 1581 1579 1577 1575 1574 1572 1569 1567 1565 1564 1562 1561 1559 1557 1554 1552 1549 1546 1544 1542 1539 1537 1534 1531 1529 1527 1524 1521 1518 1515 1512 1508 1504 1501 1498 1494
1576 1577 1578 1581 1585 1587 1587 1588 1588 1589 1588 1588 1588 1588 1587 1587 1587 1586 1585 1585 1584 1583 1583 1583 1582 1581 1581 1580 1580 1580 1581 1580 1579 1581 1582 1581 1582 1585 1585 1582 1581 1583 1584 1584 1584 1583 1583 1583 1583 1581 1580 1578 1576 1575 1573 1572 1570 1567 1566 1564 1562 1561 1559 1557 1555 1553 1550 1547 1545 1543 1540 1537 1535 1532 1530 1527 1525 1522 1520 1517 1514 1511 1507 1504 1500 1497 1494
1578 1579 1582 1584 1585 1587 1588 1588 1588 1588 1588 1589 1588 1588 1588 1587 1587 1586 1586 1585 1583 1583 1583 1582 1582 1582 1582 1581 1580 1580 1582 1583 1584 1583 1581 1582 1588 1592 1589 1583 1581 1581 1582 1583 1584 1584 1583 1582 1581 1579 1578 1576 1574 1572 1571 1569 1567 1565 1564 1562 1560 1559 1557 1555 1553 1551 1549 1546 1544 1541 1539 1536 1533 1531 1528 1526 1523 1521 1519 1516 1513 1510 1507 1504 1500 1496 1492
1581 1582 1585 1586 1586 1587 1588 1588 1588 1588 1589 1589 1588 1588 1588 1587 1587 1586 1586 1585 1584 1583 1583 1582 1582 1582 1581 1579 1579 1580 1582 1585 1587 1586 1584 1586 1591 1591 1585 1580 1580 1582 1583 1583 1583 1583 1582 1580 1579 1577 1576 1574 1572 1570 1569 1567 1565 1564 1562 1560 1558 1557 1555 1553 1551 1549 1547 1545 1542 1540 1537 1535 1532 1530 1528 1525 1522 1520 1518 1515 1512 1509 1506 1503 1499 1495 1492
1583 1585 1587 1587 1587 1587 1588 1589 1588 1589 1589 1589 1589 1588 1588 1587 1587 1586 1585 1585 1584 1584 1583 1583 1583 1582 1580 1580 1582 1583 1584 1584 1586 1586 1585 1587 1588 1587 1583 1581 1582 1582 1582 1582 1583 1582 1580 1579 1577 1575 1574 1572 1570 1568 1566 1565 1564 1562 1561 1558 1557 1555 1553 1551 1549 1547 1545 1543 1540 1538 1536 1534 1532 1529 1527 1524 1521 1518 1516 1513 1510 1507 1504 1501 1498 1495 1492